sat.trackr.live / text

‹ back to catalog

STARLINK-1665

NORAD 46356 · 2020-062AH

PAYLOAD ACTIVE UNKNOWN

§ Identity

Operator
Country
US
Launch date
2020-09-03
Launch site
AFETR
Launch vehicle
Mass (kg)
RCS (m²)

Purposes: comms

External: N2YO · Heavens-Above · Gunter

§ Orbital elements

Epoch: 2026-06-27T02:21:32.035680Z

Period
87.69 min
Inclination
53.0154°
Eccentricity
0.0007262
Mean motion
16.42186075 rev/d
Perigee alt
155.2 km
Apogee alt
164.7 km
Semi-major
6,538.1 km
B*
5.0765e-4
RAAN
147.1846°
Arg perigee
242.6624°
Mean anomaly
117.3684°
Rev number
32,217

§ Raw data

STARLINK-16651 46356U 20062AH  26178.09828745  .09495866  12368-4  50765-3 0  99982 46356  53.0154 147.1846 0007262 242.6624 117.3684 16.42186075322173

JSON: /api/v1/satellites/46356 · /tle

For live sub-satellite position, see the globe view (requires WebGL).

§ Visibility from observer

Set your observer location to see the next 7 days of passes ≥ 10°. The values pass through the URL so the page stays shareable.

No JS? Fill the form by hand. The geolocation button needs JavaScript.